Overview Statistics Trail Chart Weather Telemetry Raw packets
 

This is the latest recevied weather packets stored in our database for station/object KC1TEM-13. If no packets are shown the sender has not sent any weather packets the latest 10 day(s).

<< 83 84 85 86 87 88 89 >>
Time Temp. Humidity Pressure Rain* Wind** Luminosity Snow
1788009495 18.33° C 70% 1023.5 hPa 0 mm - 58 W/m² -
1788009190 17.78° C 70% 1023.6 hPa 0 mm - 52 W/m² -
1788008885 17.78° C 70% 1023.4 hPa 0 mm - 45 W/m² -
1788008581 17.78° C 71% 1023.5 hPa 0 mm - 70 W/m² -
1788008278 17.22° C 73% 1023.5 hPa 0 mm - 45 W/m² -
1788007976 17.22° C 74% 1023.3 hPa 0 mm - 45 W/m² -
1788007675 17.22° C 74% 1023.2 hPa 0 mm - 90 W/m² -
1788007371 16.67° C 74% 1023.2 hPa 0 mm - 52 W/m² -
1788007065 16.67° C 75% 1023 hPa 0 mm - 42 W/m² -
1788006764 16.11° C 78% 1023 hPa 0 mm - 88 W/m² -
1788006458 16.11° C 78% 1023.2 hPa 0 mm - 66 W/m² -
1788006158 16.11° C 78% 1023.1 hPa 0 mm - 54 W/m² -
1788005858 15.56° C 77% 1023.2 hPa 0 mm - 87 W/m² -
1788005552 15.56° C 78% 1023.3 hPa 0 mm - 65 W/m² -
1788005251 15.56° C 79% 1023 hPa 0 mm - 52 W/m² -
1788004950 15.56° C 80% 1023 hPa 0 mm - 51 W/m² -
1788004649 15° C 81% 1023 hPa 0 mm - 40 W/m² -
1788004345 15° C 82% 1022.8 hPa 0 mm - 36 W/m² -
1788004045 15° C 82% 1022.8 hPa 0 mm - 37 W/m² -
1788003743 14.44° C 81% 1022.8 hPa 0 mm - 32 W/m² -
1788003439 14.44° C 82% 1022.7 hPa 0 mm - 30 W/m² -
1788003139 14.44° C 83% 1022.7 hPa 0 mm - 31 W/m² -
1788002838 14.44° C 82% 1022.7 hPa 0 mm - 29 W/m² -
1788002534 14.44° C 83% 1022.7 hPa 0 mm - 28 W/m² -
1788002230 13.89° C 85% 1022.5 hPa 0 mm - 25 W/m² -

* Rain latest hour (hover to see other rain measurements)
** Current wind speed in m/s (hover to see current wind gust speed)